Year,Month,Day,Hour,Minute,Value (Times are PST for temperature in C)
2023,04,18,08,21,3.10
2023,04,18,08,22,3.10
2023,04,18,08,23,3.20
2023,04,18,08,24,3.20
2023,04,18,08,25,3.30
2023,04,18,08,26,3.40
2023,04,18,08,27,3.40
2023,04,18,08,28,3.50
2023,04,18,08,29,3.60
2023,04,18,08,30,3.70
2023,04,18,08,31,3.80
2023,04,18,08,32,3.80
2023,04,18,08,33,3.90
2023,04,18,08,34,3.90
2023,04,18,08,35,3.90
2023,04,18,08,36,4.00
2023,04,18,08,37,4.00
2023,04,18,08,38,4.00
2023,04,18,08,39,4.00
2023,04,18,08,40,4.00
2023,04,18,08,41,4.00
2023,04,18,08,42,4.00
2023,04,18,08,43,4.00
2023,04,18,08,44,3.90
2023,04,18,08,45,3.90
2023,04,18,08,46,3.80
2023,04,18,08,47,3.80
2023,04,18,08,48,3.80
2023,04,18,08,49,3.80
2023,04,18,08,50,3.70
2023,04,18,08,51,3.70
2023,04,18,08,52,3.70
2023,04,18,08,53,3.80
2023,04,18,08,54,3.70
2023,04,18,08,55,3.70
2023,04,18,08,56,3.70
2023,04,18,08,57,3.70
2023,04,18,08,58,3.70
2023,04,18,08,59,3.70
2023,04,18,09,00,3.70
2023,04,18,09,01,3.70
2023,04,18,09,02,3.70
2023,04,18,09,03,3.60
2023,04,18,09,04,3.70
2023,04,18,09,05,3.70
2023,04,18,09,06,3.70
2023,04,18,09,07,3.70
2023,04,18,09,08,3.70
2023,04,18,09,09,3.70
2023,04,18,09,10,3.80
2023,04,18,09,11,3.80
2023,04,18,09,12,3.80
2023,04,18,09,13,3.90
2023,04,18,09,14,3.90
2023,04,18,09,15,3.90
2023,04,18,09,16,4.00
2023,04,18,09,17,3.90
2023,04,18,09,18,4.00
2023,04,18,09,19,4.00
2023,04,18,09,20,4.00
2023,04,18,09,21,4.00
2023,04,18,09,22,4.00
2023,04,18,09,23,4.00
2023,04,18,09,24,4.00
2023,04,18,09,25,4.00
2023,04,18,09,26,4.10
2023,04,18,09,27,4.10
2023,04,18,09,28,4.10
2023,04,18,09,29,4.20
2023,04,18,09,30,4.20
2023,04,18,09,31,4.20
2023,04,18,09,32,4.30
2023,04,18,09,33,4.30
2023,04,18,09,34,4.40
2023,04,18,09,35,4.50
2023,04,18,09,36,4.60
2023,04,18,09,37,4.60
2023,04,18,09,38,4.70
2023,04,18,09,39,4.70
2023,04,18,09,40,4.70
2023,04,18,09,41,4.80
2023,04,18,09,42,4.90
2023,04,18,09,43,4.90
2023,04,18,09,44,4.90
2023,04,18,09,45,4.90
2023,04,18,09,46,5.00
2023,04,18,09,47,5.00
2023,04,18,09,48,5.00
2023,04,18,09,49,5.10
2023,04,18,09,50,5.10
2023,04,18,09,51,5.00
2023,04,18,09,52,4.90
2023,04,18,09,53,4.90
2023,04,18,09,54,4.90
2023,04,18,09,55,4.90
2023,04,18,09,56,4.90
2023,04,18,09,57,4.90
2023,04,18,09,58,4.90
2023,04,18,09,59,4.80
2023,04,18,10,00,4.80
2023,04,18,10,01,4.80
2023,04,18,10,02,4.80
2023,04,18,10,03,4.80
2023,04,18,10,04,4.80
2023,04,18,10,05,4.80
2023,04,18,10,06,4.80
2023,04,18,10,07,4.80
2023,04,18,10,08,4.80
2023,04,18,10,09,4.80
2023,04,18,10,10,5.00
2023,04,18,10,11,5.00
2023,04,18,10,12,5.20
2023,04,18,10,13,5.30
2023,04,18,10,14,5.40
2023,04,18,10,15,5.40
2023,04,18,10,16,5.50
2023,04,18,10,17,5.60
2023,04,18,10,18,5.60
2023,04,18,10,19,5.60
2023,04,18,10,20,5.70
2023,04,18,10,21,5.70
2023,04,18,10,22,5.80
2023,04,18,10,23,5.80
2023,04,18,10,24,5.80
2023,04,18,10,25,5.80
2023,04,18,10,26,5.80
2023,04,18,10,27,5.90
2023,04,18,10,28,5.90
2023,04,18,10,29,5.80
2023,04,18,10,30,5.80
2023,04,18,10,31,5.90
2023,04,18,10,32,5.90
2023,04,18,10,33,5.90
2023,04,18,10,34,5.90
2023,04,18,10,35,5.90
2023,04,18,10,36,5.90
2023,04,18,10,37,6.00
2023,04,18,10,38,6.10
2023,04,18,10,39,6.10
2023,04,18,10,40,6.20
2023,04,18,10,41,6.20
2023,04,18,10,42,6.30
2023,04,18,10,43,6.40
2023,04,18,10,44,6.50
2023,04,18,10,45,6.60
2023,04,18,10,46,6.70
2023,04,18,10,47,6.90
2023,04,18,10,48,7.00
2023,04,18,10,49,6.90
2023,04,18,10,50,6.80
2023,04,18,10,51,6.70
2023,04,18,10,52,6.60
2023,04,18,10,53,6.50
2023,04,18,10,54,6.40
2023,04,18,10,55,6.30
2023,04,18,10,56,6.20
2023,04,18,10,57,6.10
2023,04,18,10,58,6.00
2023,04,18,10,59,5.90
2023,04,18,11,00,5.90
2023,04,18,11,01,5.80
2023,04,18,11,02,5.80
2023,04,18,11,03,5.80
2023,04,18,11,04,5.80
2023,04,18,11,05,5.80
2023,04,18,11,06,5.90
2023,04,18,11,07,6.10
2023,04,18,11,08,6.20
2023,04,18,11,09,6.20
2023,04,18,11,10,6.30
2023,04,18,11,11,6.40
2023,04,18,11,12,6.50
2023,04,18,11,13,6.50
2023,04,18,11,14,6.60
2023,04,18,11,15,6.50
2023,04,18,11,16,6.40
2023,04,18,11,17,6.30
2023,04,18,11,18,6.30
2023,04,18,11,19,6.40
2023,04,18,11,20,6.50
2023,04,18,11,21,6.60
2023,04,18,11,22,6.60
2023,04,18,11,23,6.60
2023,04,18,11,24,6.70
2023,04,18,11,25,6.80
2023,04,18,11,26,6.80
2023,04,18,11,27,6.80
2023,04,18,11,28,6.80
2023,04,18,11,29,6.80
2023,04,18,11,30,6.80
2023,04,18,11,31,6.90
2023,04,18,11,32,7.00
2023,04,18,11,33,7.00
2023,04,18,11,34,7.00
2023,04,18,11,35,7.00
2023,04,18,11,36,6.90
2023,04,18,11,37,6.80
2023,04,18,11,38,6.80
2023,04,18,11,39,6.70
2023,04,18,11,40,6.70
2023,04,18,11,41,6.70
2023,04,18,11,42,6.70
2023,04,18,11,43,6.70
2023,04,18,11,44,6.70
2023,04,18,11,45,6.60
2023,04,18,11,46,6.70
2023,04,18,11,47,6.70
2023,04,18,11,48,6.80
2023,04,18,11,49,6.90
2023,04,18,11,50,7.10
2023,04,18,11,51,7.10
2023,04,18,11,52,7.20
2023,04,18,11,53,7.20
2023,04,18,11,54,7.20
2023,04,18,11,55,7.20
2023,04,18,11,56,7.30
2023,04,18,11,57,7.40
2023,04,18,11,58,7.40
2023,04,18,11,59,7.50
2023,04,18,12,00,7.50
2023,04,18,12,01,7.60
2023,04,18,12,02,7.60
2023,04,18,12,03,7.70
2023,04,18,12,04,7.70
2023,04,18,12,05,7.80
2023,04,18,12,06,7.80
2023,04,18,12,07,7.90
2023,04,18,12,08,8.00
2023,04,18,12,09,8.10
2023,04,18,12,10,8.30
2023,04,18,12,11,8.40
2023,04,18,12,12,8.50
2023,04,18,12,13,8.60
2023,04,18,12,14,8.60
2023,04,18,12,15,8.60
2023,04,18,12,16,8.60
2023,04,18,12,17,8.60
2023,04,18,12,18,8.70
2023,04,18,12,19,8.70
2023,04,18,12,20,8.70
2023,04,18,12,21,8.70
2023,04,18,12,22,8.70
2023,04,18,12,23,8.80
2023,04,18,12,24,8.80
2023,04,18,12,25,8.80
2023,04,18,12,26,8.80
2023,04,18,12,27,8.70
2023,04,18,12,28,8.70
2023,04,18,12,29,8.50
2023,04,18,12,30,8.40
2023,04,18,12,31,8.40
2023,04,18,12,32,8.30
2023,04,18,12,33,8.20
2023,04,18,12,34,8.20
2023,04,18,12,35,8.10
2023,04,18,12,36,8.10
2023,04,18,12,37,8.20
2023,04,18,12,38,8.20
2023,04,18,12,39,8.30
2023,04,18,12,40,8.30
2023,04,18,12,41,8.50
2023,04,18,12,42,8.60
2023,04,18,12,43,8.70
2023,04,18,12,44,8.70
2023,04,18,12,45,8.70
2023,04,18,12,46,8.70
2023,04,18,12,47,8.60
2023,04,18,12,48,8.60
2023,04,18,12,49,8.60
2023,04,18,12,50,8.60
2023,04,18,12,51,8.50
2023,04,18,12,52,8.50
2023,04,18,12,53,8.40
2023,04,18,12,54,8.40
2023,04,18,12,55,8.40
2023,04,18,12,56,8.40
2023,04,18,12,57,8.40
2023,04,18,12,58,8.40
2023,04,18,12,59,8.30
2023,04,18,13,00,8.30
2023,04,18,13,01,8.40
2023,04,18,13,02,8.30
2023,04,18,13,03,8.40
2023,04,18,13,04,8.40
2023,04,18,13,05,8.30
2023,04,18,13,06,8.30
2023,04,18,13,07,8.30
2023,04,18,13,08,8.20
2023,04,18,13,09,8.20
2023,04,18,13,10,8.20
2023,04,18,13,11,8.20
2023,04,18,13,12,8.20
2023,04,18,13,13,8.20
2023,04,18,13,14,8.20
2023,04,18,13,15,8.30
2023,04,18,13,16,8.30
2023,04,18,13,17,8.40
2023,04,18,13,18,8.40
2023,04,18,13,19,8.50
2023,04,18,13,20,8.60
2023,04,18,13,21,8.60
2023,04,18,13,22,8.70
2023,04,18,13,23,8.70
2023,04,18,13,24,8.70
2023,04,18,13,25,8.70
2023,04,18,13,26,8.70
2023,04,18,13,27,8.70
2023,04,18,13,28,8.70
2023,04,18,13,29,8.70
2023,04,18,13,30,8.70
2023,04,18,13,31,8.60
2023,04,18,13,32,8.60
2023,04,18,13,33,8.60
2023,04,18,13,34,8.50
2023,04,18,13,35,8.50
2023,04,18,13,36,8.50
2023,04,18,13,37,8.50
2023,04,18,13,38,8.50
2023,04,18,13,39,8.40
2023,04,18,13,40,8.30
2023,04,18,13,41,8.30
2023,04,18,13,42,8.20
2023,04,18,13,43,8.20
2023,04,18,13,44,8.10
2023,04,18,13,45,8.10
2023,04,18,13,46,8.10
2023,04,18,13,47,8.00
2023,04,18,13,48,7.90
2023,04,18,13,49,7.90
2023,04,18,13,50,7.90
2023,04,18,13,51,7.90
2023,04,18,13,52,7.80
2023,04,18,13,53,7.80
2023,04,18,13,54,7.80
2023,04,18,13,55,7.80
2023,04,18,13,56,7.80
2023,04,18,13,57,7.80
2023,04,18,13,58,7.80
2023,04,18,13,59,7.80
2023,04,18,14,00,7.80
2023,04,18,14,01,7.80
2023,04,18,14,02,7.80
2023,04,18,14,03,7.80
2023,04,18,14,04,7.80
2023,04,18,14,05,7.80
2023,04,18,14,06,7.90
2023,04,18,14,07,7.90
2023,04,18,14,08,7.90
2023,04,18,14,09,8.00
2023,04,18,14,10,8.10
2023,04,18,14,11,8.10
2023,04,18,14,12,8.20
2023,04,18,14,13,8.30
2023,04,18,14,14,8.30
2023,04,18,14,15,8.30
2023,04,18,14,16,8.40
2023,04,18,14,17,8.40
2023,04,18,14,18,8.40
2023,04,18,14,19,8.40
2023,04,18,14,20,8.40
2023,04,18,14,21,8.30
2023,04,18,14,22,8.40
2023,04,18,14,23,8.30
2023,04,18,14,24,8.30
2023,04,18,14,25,8.30
2023,04,18,14,26,8.30
2023,04,18,14,27,8.30
2023,04,18,14,28,8.40
2023,04,18,14,29,8.40
2023,04,18,14,30,8.50
2023,04,18,14,31,8.60
2023,04,18,14,32,8.70
2023,04,18,14,33,8.80
2023,04,18,14,34,8.80
2023,04,18,14,35,8.80
2023,04,18,14,36,8.90
2023,04,18,14,37,8.90
2023,04,18,14,38,8.80
2023,04,18,14,39,8.90
2023,04,18,14,40,8.90
2023,04,18,14,41,9.10
2023,04,18,14,42,9.10
2023,04,18,14,43,9.20
2023,04,18,14,44,9.40
2023,04,18,14,45,9.50
2023,04,18,14,46,9.60
2023,04,18,14,47,9.70
2023,04,18,14,48,9.70
2023,04,18,14,49,9.70
2023,04,18,14,50,9.70
2023,04,18,14,51,9.70
2023,04,18,14,52,9.70
2023,04,18,14,53,9.80
2023,04,18,14,54,9.80
2023,04,18,14,55,9.70
2023,04,18,14,56,9.70
2023,04,18,14,57,9.60
2023,04,18,14,58,9.50
2023,04,18,14,59,9.40
2023,04,18,15,00,9.30
2023,04,18,15,01,9.20
2023,04,18,15,02,9.20
2023,04,18,15,03,9.10
2023,04,18,15,04,9.00
2023,04,18,15,05,8.90
2023,04,18,15,06,8.90
2023,04,18,15,07,8.90
2023,04,18,15,08,8.90
2023,04,18,15,09,8.90
2023,04,18,15,10,8.90
2023,04,18,15,11,8.90
2023,04,18,15,12,8.90
2023,04,18,15,13,8.90
2023,04,18,15,14,8.90
2023,04,18,15,15,8.90
2023,04,18,15,16,8.90
2023,04,18,15,17,8.80
2023,04,18,15,18,8.80
2023,04,18,15,19,8.80
2023,04,18,15,20,8.90
2023,04,18,15,21,8.90
2023,04,18,15,22,8.90
2023,04,18,15,23,8.90
2023,04,18,15,24,9.00
2023,04,18,15,25,9.00
2023,04,18,15,26,9.10
2023,04,18,15,27,9.10
2023,04,18,15,28,9.10
2023,04,18,15,29,9.30
2023,04,18,15,30,9.30
2023,04,18,15,31,9.50
2023,04,18,15,32,9.60
2023,04,18,15,33,9.60
2023,04,18,15,34,9.70
2023,04,18,15,35,9.80
2023,04,18,15,36,9.70
2023,04,18,15,37,9.70
2023,04,18,15,38,9.70
2023,04,18,15,39,9.70
2023,04,18,15,40,9.70
2023,04,18,15,41,9.70
2023,04,18,15,42,9.60
2023,04,18,15,43,9.60
2023,04,18,15,44,9.50
2023,04,18,15,45,9.50
2023,04,18,15,46,9.40
2023,04,18,15,47,9.40
2023,04,18,15,48,9.40
2023,04,18,15,49,9.40
2023,04,18,15,50,9.40
2023,04,18,15,51,9.40
2023,04,18,15,52,9.30
2023,04,18,15,53,9.20
2023,04,18,15,54,9.20
2023,04,18,15,55,9.20
2023,04,18,15,56,9.10
2023,04,18,15,57,9.10
2023,04,18,15,58,9.20
2023,04,18,15,59,9.20
2023,04,18,16,00,9.30
2023,04,18,16,01,9.30
2023,04,18,16,02,9.30
2023,04,18,16,03,9.30
2023,04,18,16,04,9.30
2023,04,18,16,05,9.40
2023,04,18,16,06,9.40
2023,04,18,16,07,9.40
2023,04,18,16,08,9.40
2023,04,18,16,09,9.40
2023,04,18,16,10,9.30
2023,04,18,16,11,9.20
2023,04,18,16,12,9.20
2023,04,18,16,13,9.10
2023,04,18,16,14,9.10
2023,04,18,16,15,9.10
2023,04,18,16,16,9.00
2023,04,18,16,17,9.00
2023,04,18,16,18,8.90
2023,04,18,16,19,8.90
2023,04,18,16,20,8.90
2023,04,18,16,21,8.80
2023,04,18,16,22,8.80
2023,04,18,16,23,8.80
2023,04,18,16,24,8.80
2023,04,18,16,25,8.80
2023,04,18,16,26,8.70
2023,04,18,16,27,8.70
2023,04,18,16,28,8.70
2023,04,18,16,29,8.70
2023,04,18,16,30,8.80
2023,04,18,16,31,8.80
2023,04,18,16,32,8.80
2023,04,18,16,33,8.80
2023,04,18,16,34,8.90
2023,04,18,16,35,8.90
2023,04,18,16,36,9.00
2023,04,18,16,37,9.00
2023,04,18,16,38,9.10
2023,04,18,16,39,9.10
2023,04,18,16,40,9.20
2023,04,18,16,41,9.20
2023,04,18,16,42,9.20
2023,04,18,16,43,9.20
2023,04,18,16,44,9.20
2023,04,18,16,45,9.10
2023,04,18,16,46,9.10
2023,04,18,16,47,9.10
2023,04,18,16,48,9.10
2023,04,18,16,49,9.10
2023,04,18,16,50,9.10
2023,04,18,16,51,9.00
2023,04,18,16,52,8.90
2023,04,18,16,53,8.90
2023,04,18,16,54,8.90
2023,04,18,16,55,8.80
2023,04,18,16,56,8.80
2023,04,18,16,57,8.80
2023,04,18,16,58,8.70
2023,04,18,16,59,8.70
2023,04,18,17,00,8.70
2023,04,18,17,01,8.60
2023,04,18,17,02,8.60
2023,04,18,17,03,8.60
2023,04,18,17,04,8.50
2023,04,18,17,05,8.60
2023,04,18,17,06,8.50
2023,04,18,17,07,8.50
2023,04,18,17,08,8.50
2023,04,18,17,09,8.50
2023,04,18,17,10,8.50
2023,04,18,17,11,8.50
2023,04,18,17,12,8.50
2023,04,18,17,13,8.50
2023,04,18,17,14,8.60
2023,04,18,17,15,8.60
2023,04,18,17,16,8.60
2023,04,18,17,17,8.60
2023,04,18,17,18,8.60
2023,04,18,17,19,8.60
2023,04,18,17,20,8.60
2023,04,18,17,21,8.60
2023,04,18,17,22,8.60
2023,04,18,17,23,8.60
2023,04,18,17,24,8.60
2023,04,18,17,25,8.60
2023,04,18,17,26,8.60
2023,04,18,17,27,8.50
2023,04,18,17,28,8.50
2023,04,18,17,29,8.50
2023,04,18,17,30,8.40
2023,04,18,17,31,8.40
2023,04,18,17,32,8.40
2023,04,18,17,33,8.40
2023,04,18,17,34,8.30
2023,04,18,17,35,8.30
2023,04,18,17,36,8.30
2023,04,18,17,37,8.30
2023,04,18,17,38,8.20
2023,04,18,17,39,8.20
2023,04,18,17,40,8.20
2023,04,18,17,41,8.20
2023,04,18,17,42,8.30
2023,04,18,17,43,8.30
2023,04,18,17,44,8.30
2023,04,18,17,45,8.30
2023,04,18,17,46,8.20
2023,04,18,17,47,8.20
2023,04,18,17,48,8.20
2023,04,18,17,49,8.20
2023,04,18,17,50,8.20
2023,04,18,17,51,8.20
2023,04,18,17,52,8.20
2023,04,18,17,53,8.20
2023,04,18,17,54,8.30
2023,04,18,17,55,8.30
2023,04,18,17,56,8.30
2023,04,18,17,57,8.30
2023,04,18,17,58,8.30
2023,04,18,17,59,8.40
2023,04,18,18,00,8.40
2023,04,18,18,01,8.40
2023,04,18,18,02,8.40
2023,04,18,18,03,8.40
2023,04,18,18,04,8.50
2023,04,18,18,05,8.50
2023,04,18,18,06,8.50
2023,04,18,18,07,8.50
2023,04,18,18,08,8.50
2023,04,18,18,09,8.50
2023,04,18,18,10,8.50
2023,04,18,18,11,8.50
2023,04,18,18,12,8.50
2023,04,18,18,13,8.50
2023,04,18,18,14,8.60
2023,04,18,18,15,8.50
2023,04,18,18,16,8.60
2023,04,18,18,17,8.60
2023,04,18,18,18,8.60
2023,04,18,18,19,8.60
2023,04,18,18,20,8.60
2023,04,18,18,21,8.60
2023,04,18,18,22,8.60
2023,04,18,18,23,8.60
2023,04,18,18,24,8.60
2023,04,18,18,25,8.60
